Regional Weather Roundup
Issued by NWS

Home | Current Version | Previous Version | Graphics & Text | Print | Product List | Glossary On
Versions: 1 2 3 4 5 6 7 8 9 10 11 12 13 14 15 16 17 18 19 20 21 22 23 24 25 26 27 28 29 30 31 32 33 34 35 36 37 38 39 40 41 42 43 44 45 46 47 48 49 50
000
ASUS45 KSLC 181710
RWRUT

UTAH REGIONAL WEATHER ROUNDUP
NATIONAL WEATHER SERVICE SALT LAKE CITY UT
1000 AM MST THU DEC 18 2014

UTZ001>011-023>025-181800-

NORTHERN UTAH

CITY           SKY/WX    TMP DP  RH WIND       PRES   REMARKS
BRIGHAM CITY   CLOUDY    33  30  88 CALM      30.17R
HILL AFB       MOSUNNY   34  28  78 SE8       30.15R WCI  27
LOGAN          CLOUDY    32  27  81 CALM      30.15R
OGDEN          PTSUNNY   34  27  75 S7        30.15R WCI  28
PROVO AIRPORT  PTSUNNY   34  32  93 CALM      30.17R
SALT LAKE CITY PTSUNNY   36  32  85 S5        30.16R WCI  32
VERNAL         CLOUDY    26  23  88 SE5       30.19R WCI  20
WENDOVER       MOSUNNY   30  27  86 CALM      30.17R
HEBER CITY     CLOUDY    32  27  80 CALM      30.14R
WEST JORDAN    CLOUDY    34  34 100 NE7       30.16R WCI  28

$$

UTZ012>022-026-027-181800-

SOUTHERN/CENTRAL UTAH

CITY           SKY/WX    TMP DP  RH WIND       PRES   REMARKS
BLANDING       CLOUDY    32  32  99 CALM      30.23R
BRYCE CANYON   CLOUDY    28  23  81 CALM      30.13R
CEDAR CITY     SUNNY     33  30  88 CALM      30.13R
DELTA          CLOUDY    31  31 100 SW3       30.17R
MILFORD        SUNNY     39  31  72 SW7       30.14R WCI  34
MOAB/CYNLANDS  MIX PCPN  36  34  92 CALM      30.16R
PRICE          FOG       27  25  92 CALM      30.14R VSB 1/2
ST GEORGE      MOSUNNY   43  39  87 S3        30.20R
KANAB          CLOUDY    36  36 100 CALM      30.21R

$$

REGIONAL REPORTS     COLORADO/ARIZONA

CITY           SKY/WX    TMP DP  RH WIND       PRES   REMARKS
CRAIG, CO      CLOUDY    28  24  85 CALM      30.15R FOG
GRAND JUNCTION CLOUDY    34  33  96 NW7       30.16R WCI  28
RIFLE          LGT SNOW  34  32  92 CALM      30.15R FOG
MONTROSE       CLOUDY    34  32  92 N3        30.16R FOG
CORTEZ         CLOUDY    35  32  88 S5        30.15R WCI  31
PAGE, AZ       CLOUDY    40  35  83 CALM      30.17R
GRAND CANYON   CLOUDY    32  30  92 CALM      30.16R
KINGMAN        CLOUDY    43  39  86 NW3       30.17R
FLAGSTAFF      LGT SNOW  29  27  92 CALM      30.13R VSB 3/4

$$

REGIONAL REPORTS    NEVADA/IDAHO/WYOMING

CITY           SKY/WX    TMP DP  RH WIND       PRES   REMARKS
LAS VEGAS, NV  PTSUNNY   49  41  74 S6        30.15R
ELY            CLOUDY    31  23  72 S7        30.15R WCI  24
ELKO           PTSUNNY   30  25  81 CALM      30.15R
POCATELLO, ID  PTSUNNY   27  26  96 CALM      30.14R
BURLEY         MOSUNNY   30  25  81 CALM      30.12R
EVANSTON, WY   CLOUDY    25  22  88 SW6       30.11R WCI  18
ROCK SPRINGS   NOT AVBL
KEMMERER       CLOUDY    23  21  93 CALM      30.10R

$$



USA.gov is the U.S. government's official web portal to all federal, state and local government web resources and services.